Regional Weather Roundup
Issued by NWS

Home | Current Version | Previous Version | Graphics & Text | Print | Product List | Glossary On
Versions: 1 2 3 4 5 6 7 8 9 10 11 12 13 14 15 16 17 18 19 20 21 22 23 24 25 26 27 28 29 30 31 32 33 34 35 36 37 38 39 40 41 42 43 44 45 46 47 48 49 50
000
ASUS43 KLSX 040810
RWRMO

WEATHER SUMMARY FOR MISSOURI
NATIONAL WEATHER SERVICE SPRINGFIELD MO
300 AM CDT TUE AUG 04 2015

NOTE: "FAIR" INDICATES FEW OR NO CLOUDS BELOW 12,000 FEET WITH NO
       SIGNIFICANT WEATHER AND/OR OBSTRUCTIONS TO VISIBILITY.
       CURRENT SKY AND/OR WEATHER CONDITIONS ARE NOT AVAILABLE FOR
       CHILLICOTHE AND FARMINGTON.

MOZ001>031-035>038-043-044-053-054-040900-
...NORTHERN AND WESTERN MISSOURI...

CITY           SKY/WX    TMP DP  RH WIND       PRES   REMARKS
KANSAS CTY INT PTCLDY    72  66  81 SE8       29.93F
KANSAS C DTWN  PTCLDY    75  68  78 E7        29.92F
LEE`S SUMMIT   PTCLDY    73  67  81 E6        29.94F
ST JOSEPH      PTCLDY    72  67  84 SE6       29.93S
CHILLICOTHE      N/A     72  67  84 VRB3      29.96S
KIRKSVILLE     MOCLDY    67  62  84 NE6       29.97F

$$
MOZ066>068-077>081-088>096-101>105-040900-
...SOUTHWEST MISSOURI...

CITY           SKY/WX    TMP DP  RH WIND       PRES   REMARKS
SPRINGFIELD    CLEAR     72  67  84 S5        29.97R
JOPLIN         CLEAR     73  65  75 CALM      29.95S

$$
MOZ032>034-039>042-045>050-055>058-069>072-040900-
...CENTRAL MISSOURI...

CITY           SKY/WX    TMP DP  RH WIND       PRES   REMARKS
COLUMBIA       CLEAR     72  68  87 E8        29.95S
JEFFERSON CITY CLEAR     74  68  81 SE5       29.93F
ROLLA          PTCLDY    72  70  93 S3        29.94F
SEDALIA        CLEAR     74  69  85 CALM      29.95S
WHITEMAN AFB   PTCLDY    72  70  94 E1        29.92S
WARRENSBURG    CLEAR     70  68  94 CALM      29.93S
OSAGE BEACH    CLEAR     72  68  88 CALM      29.94F

$$
MOZ051-052-059>065-040900-
...EAST CENTRAL MISSOURI...

CITY           SKY/WX    TMP DP  RH WIND       PRES   REMARKS
ST LOUIS INTL  CLOUDY    79  65  62 NE5       29.95S
SPIRIT OF STL  PTCLDY    74  73  97 CALM      29.93S
ST CHARLES     MOCLDY    76  67  73 CALM      29.93S

$$
MOZ072>076-082>087-097>100-106>115-040900-
...SOUTH CENTRAL AND SOUTHEAST MISSOURI...

CITY           SKY/WX    TMP DP  RH WIND       PRES   REMARKS
CAPE GIRARDEAU PTCLDY    73  72  96 CALM      29.92S
FARMINGTON     PTCLDY    72  70  94 CALM      29.99S
POPLAR BLUFF   CLEAR     74  73  97 CALM      29.91S
WEST PLAINS    CLEAR     71  67  87 CALM      29.98F

$$



USA.gov is the U.S. government's official web portal to all federal, state and local government web resources and services.